This is the latest recevied weather packets stored in our database for station/object KJ7BRE-1. If no packets are shown the sender has not sent any weather packets the latest 10 day(s).
| Time | Temp. | Humidity | Pressure | Rain* | Wind** | Luminosity | Snow |
|---|---|---|---|---|---|---|---|
| 1787616364 | 35° C | 29% | 1008.8 hPa | 0 mm | - | - | - |
| 1787616063 | 35° C | 30% | 1008.8 hPa | 0 mm | - | - | - |
| 1787615762 | 35° C | 30% | 1008.8 hPa | 0 mm | - | - | - |
| 1787615461 | 35° C | 30% | 1009.1 hPa | 0 mm | - | - | - |
| 1787615160 | 35° C | 30% | 1008.8 hPa | 0 mm | - | - | - |
| 1787614858 | 34.44° C | 30% | 1008.8 hPa | 0 mm | - | - | - |
| 1787614557 | 34.44° C | 30% | 1008.8 hPa | 0 mm | - | - | - |
| 1787614256 | 34.44° C | 30% | 1008.8 hPa | 0 mm | - | - | - |
| 1787613955 | 34.44° C | 31% | 1008.8 hPa | 0 mm | - | - | - |
| 1787613654 | 34.44° C | 32% | 1009.1 hPa | 0 mm | - | - | - |
| 1787613352 | 33.33° C | 33% | 1009.1 hPa | 0 mm | - | - | - |
| 1787613051 | 33.33° C | 31% | 1009.1 hPa | 0 mm | - | - | - |
| 1787612750 | 33.89° C | 31% | 1009.1 hPa | 0 mm | - | - | - |
| 1787612449 | 33.89° C | 33% | 1009.1 hPa | 0 mm | - | - | - |
| 1787612147 | 33.33° C | 34% | 1009.1 hPa | 0 mm | - | - | - |
| 1787611846 | 33.89° C | 34% | 1009.1 hPa | 0 mm | - | - | - |
| 1787611545 | 33.89° C | 34% | 1008.8 hPa | 0 mm | - | - | - |
| 1787611244 | 33.89° C | 33% | 1009.5 hPa | 0 mm | - | - | - |
| 1787610943 | 34.44° C | 32% | 1009.5 hPa | 0 mm | - | - | - |
| 1787610642 | 34.44° C | 32% | 1009.1 hPa | 0 mm | - | - | - |
| 1787610340 | 34.44° C | 33% | 1009.5 hPa | 0 mm | - | - | - |
| 1787610039 | 34.44° C | 33% | 1009.5 hPa | 0 mm | - | - | - |
| 1787609738 | 33.89° C | 36% | 1009.5 hPa | 0 mm | - | - | - |
| 1787609437 | 33.33° C | 34% | 1009.5 hPa | 0 mm | - | - | - |
| 1787609135 | 33.33° C | 36% | 1009.5 hPa | 0 mm | - | - | - |
* Rain latest hour (hover to see other rain measurements)
** Current wind speed in m/s (hover to see current wind gust speed)